Regional Weather Roundup
Issued by NWS New Orleans/Baton Rouge, LA

Current Version | Previous Version | Text Only | Print | Product List | Glossary On
Versions: 1 2 3 4 5 6 7 8 9 10 11 12 13 14 15 16 17 18 19 20 21 22 23 24 25 26 27 28 29 30 31 32 33 34 35 36 37 38 39 40 41 42 43 44 45 46 47 48 49 50
000
ASUS44 KLIX 260605
RWRLIX
NEW ORLEANS REGIONAL WEATHER ROUNDUP
NATIONAL WEATHER SERVICE NEW ORLEANS LA
100 AM CDT SUN OCT 26 2014

NOTE: "FAIR" INDICATES FEW OR NO CLOUDS BELOW 12,000 FEET WITH NO
      SIGNIFICANT WEATHER AND/OR OBSTRUCTIONS TO VISIBILITY.
      SKY/WX - SKY CONDITION AND SIGNIFICANT WEATHER.
      TMP - AIR TEMPERATURE.     DP    - DEWPOINT TEMPERATURE.
      RH  - RELATIVE HUMIDITY.   PRES  - PRESSURE.
      HI  - HEAT INDEX.          WCI   - WIND CHILL INDEX.

*  THESE STATIONS ARE NOT NWS OR FAA STATIONS AND ARE NOT UNDER
   NWS QUALITY CONTROL.

LAZ038-040-048-061>063-065>067-069-260700-
SOUTHEAST LOUISIANA

CITY           SKY/WX    TMP DP  RH WIND       PRES   REMARKS
N.O. AUDUBON     N/A     65  61  88 MISG        N/A
6HR MIN TEMP:  64; 6HR MAX TEMP:  72;

N.O. INTL ARPT CLEAR     62  58  86 W5        30.07F
6HR MIN TEMP:  62; 6HR MAX TEMP:  73;

N.O. LAKEFRONT CLEAR     71  61  70 N8        30.07F
6HR MIN TEMP:  71; 6HR MAX TEMP:  74;

N.O. DOWNTOWN*   N/A     70  57  64 CALM      30.07S
6HR MIN TEMP:  70; 6HR MAX TEMP:  77;

SLIDELL        CLEAR     56  53  90 CALM      30.06F
6HR MIN TEMP:  56; 6HR MAX TEMP:  67;

BATON ROUGE    CLEAR     56  54  93 CALM      30.07F
6HR MIN TEMP:  56; 6HR MAX TEMP:  71;

BOOTHVILLE     CLEAR     66  62  87 CALM      30.07F
6HR MIN TEMP:  64; 6HR MAX TEMP:  68;

BELLE CHASSE   CLEAR     57  53  86 CALM      30.06F
6HR MIN TEMP:  57; 6HR MAX TEMP:  64;

BOGALUSA*        N/A     56  54  91 CALM      30.08F
6HR MIN TEMP:  56; 6HR MAX TEMP:  70;

NEW ROADS*       N/A     55  54  95 CALM      30.08S
6HR MIN TEMP:  55; 6HR MAX TEMP:  68;

GONZALES*        N/A     57  57 100 CALM      30.07F
6HR MIN TEMP:  56; 6HR MAX TEMP:  64;

HAMMOND*       CLEAR     57  54  88 CALM      30.08F
HOUMA*         CLEAR     58  57  99 CALM      30.07F FOG
6HR MIN TEMP:  56; 6HR MAX TEMP:  66;

PORT FOURCHON* CLEAR     68  64  88 NW6       30.10S

$$

MSZ070-080>082-260700-
SOUTHERN MISSISSIPPI

CITY           SKY/WX    TMP DP  RH WIND       PRES   REMARKS
MCCOMB         CLEAR     58  54  86 CALM      30.08F
6HR MIN TEMP:  57; 6HR MAX TEMP:  71;

GULFPORT       CLEAR     59  57  93 CALM      30.05F
6HR MIN TEMP:  59; 6HR MAX TEMP:  67;

BILOXI         CLEAR     63  60  90 CALM      30.05F
6HR MIN TEMP:  63; 6HR MAX TEMP:  68;

PASCAGOULA     CLEAR     54  53  97 CALM      30.06F FOG
6HR MIN TEMP:  53; 6HR MAX TEMP:  62;


$$

COASTAL OBSERVATIONS
LAKE AND NEARSHORE STATIONS

STATION/POSITION TIME  TEMP    WIND        PRES    WAVE
                       AIR SEA DIR/SP/G            HT/PER
                 (UTC) (F)     (DEG/KT/KT) (MB)    (FT/S)
PASCAGOULA       0600   63     330/  4/  4 1017.0
WAVELAND YACHT   0600   65     300/  3/  4 1017.1
GRAND ISLE       0600   71 72  310/  6/  7 1018.4
SOUTHWEST PASS   0600   70 80              1018.2
NEW CANAL        0600   72 70  360/  4/  5 1018.3
SHELL BEACH      0600   69 68  290/  5/  5 1017.7

OFFSHORE STATIONS

STATION/POSITION TIME  TEMP    WIND        PRES    WAVE
                       AIR SEA DIR/SP/G            HT/PER
                 (UTC) (F)     (DEG/KT/KT) (MB)    (FT/S)
64 S DAUPHIN ISL 0502   74 78  340/ 12/ 14 1018.0    2/ 4

$$




USA.gov is the U.S. government's official web portal to all federal, state and local government web resources and services.